#timestamp,LO_Frequency,Hit,StdDev 
1628409615.2,286046999.0,N
1628409635.1,286046996.9,N
1628409636.0,286046996.9,N
1628409655.8,286046996.9,N
1628409675.6,286046998.7,N
1628409695.5,286046998.4,N
1628409715.3,286046998.3,N
1628409735.2,286046999.0,N
1628409755.9,286046996.8,N
1628409775.7,286046996.7,N
1628409795.6,286046996.6,N
1628409815.4,286046997.0,N
1628409835.2,286046998.7,N
1628409855.1,286046996.8,N
1628409856.0,286046996.8,N
1628409875.8,286046999.5,N
1628409895.7,286046999.3,N
1628409915.5,286046997.4,N
1628409935.3,286046996.7,N
1628409955.2,286046997.3,N
1628409975.9,286046997.0,N
1628409995.7,286046996.8,N
1628410015.6,286046999.4,N
1628410035.4,286046998.7,N
1628410055.2,286046998.6,N
1628410075.1,286047001.1,N
1628410076.0,286047001.1,N
1628410095.8,286047000.4,N
1628410115.7,286046998.5,N
1628410135.5,286046998.9,N
1628410155.3,286046999.4,N
1628410175.2,286046997.8,N
1628410195.0,286046995.9,Y
1628410195.9,286046995.9,P
1628410215.7,286046995.3,P
1628410235.6,286046995.1,P
1628410255.4,286046995.0,Y
1628410275.3,286047000.1,P
1628410295.1,286047000.9,N
1628410296.0,286047000.9,N
1628410315.8,286047001.1,N
1628410335.7,286046999.8,N
1628410355.5,286046999.8,N
1628410375.3,286047002.1,N
1628410395.2,286047000.4,N
1628410415.0,286046999.7,N
1628410415.9,286046999.7,N
1628410435.8,286047002.3,N
1628410455.6,286047001.5,N
1628410475.4,286047002.5,N
1628410495.3,286047002.5,N
1628410515.1,286047002.4,N
1628410535.8,286047002.7,N
1628410555.7,286046999.8,N
1628410575.5,286047002.2,N
1628410595.4,286047002.2,N
1628410615.2,286047000.4,N
1628410635.0,286047000.6,N
1628410635.9,286047000.6,N
1628410655.8,286046999.0,N
1628410675.6,286047000.7,N
1628410695.4,286046999.0,N
1628410715.3,286046998.7,N
1628410735.1,286046998.5,N
1628410755.9,286047000.8,N
1628410775.7,286046999.3,N
1628410795.5,286047001.1,N
1628410815.4,286047000.6,N
1628410835.2,286046998.7,N
1628410855.0,286046996.7,N
1628410855.9,286046996.7,N
1628410875.8,286046995.8,N
1628410895.6,286046995.9,N
1628410915.5,286046994.6,N
1628410935.3,286046992.3,Y
1628410955.1,286046990.5,P
1628410975.9,286046994.3,N
1628410995.7,286046994.7,N
1628411015.5,286046992.1,N
1628411035.4,286046991.7,N
1628411055.2,286046992.2,N
1628411075.0,286046992.5,N
1628411076.0,286046992.5,N
1628411095.8,286046992.8,N
1628411115.6,286046992.7,N
1628411135.5,286046991.9,Y
1628411155.3,286047000.6,P
1628411175.1,286046999.9,N
1628411195.9,286047000.3,N
1628411215.7,286047000.0,N
1628411235.6,286047000.2,N
1628411255.4,286047000.2,N
1628411275.2,286047000.4,N
1628411295.1,286046999.7,N
1628411296.0,286046999.7,N
1628411315.8,286047000.1,N
1628411335.6,286047002.0,N
1628411355.5,286047001.6,N
1628411375.3,286047002.0,N
1628411395.1,286047001.7,N
1628411415.9,286047004.3,N
1628411435.7,286047004.0,N
1628411455.6,286047001.6,N
1628411475.4,286047000.1,N
1628411495.2,286046999.9,N
1628411515.1,286047000.8,N
1628411516.0,286047000.8,N
1628411535.8,286046998.2,N
1628411555.6,286046998.6,N
1628411575.5,286046998.4,N
1628411595.3,286046999.0,N
1628411615.2,286046998.4,N
1628411635.9,286046998.7,N
1628411655.7,286046999.6,N
1628411675.6,286046996.9,N
1628411695.4,286046999.0,N
1628411715.2,286047001.2,N
1628411735.1,286046998.5,N
1628411736.0,286046998.5,N
1628411755.8,286046998.6,N
1628411775.7,286046999.6,N
1628411795.5,286046996.5,N
1628411815.3,286046996.5,N
1628411835.2,286046997.4,N
1628411855.0,286046997.4,N
1628411855.9,286046997.4,N
1628411875.8,286046997.1,N
1628411895.6,286046996.8,N
1628411915.4,286046996.9,N
1628411935.3,286046997.0,N
1628411955.1,286046998.9,N
1628411975.8,286046998.8,N
1628411995.7,286046998.5,N
1628412015.5,286046998.7,N
1628412035.4,286046998.5,N
1628412055.2,286047000.6,N
1628412075.0,286046998.1,N
1628412075.9,286046998.1,N
1628412095.8,286047000.9,N
1628412115.6,286047000.6,N
1628412135.4,286047000.6,N
1628412155.3,286046999.9,N
1628412175.1,286047000.5,N
1628412195.9,286047000.4,N
1628412215.7,286047000.3,N
1628412235.5,286047000.6,N
1628412255.4,286047000.6,N
1628412275.2,286047000.3,N
1628412295.0,286047000.3,N
1628412295.9,286047000.3,N
1628412315.8,286047001.0,N
1628412335.6,286047001.1,N
1628412355.5,286046998.8,N
1628412375.3,286046998.9,N
1628412395.1,286047001.2,N
1628412415.9,286046998.4,N
1628412435.7,286047000.9,N
1628412455.5,286047000.6,N
1628412475.4,286046998.3,N
1628412495.2,286046999.5,N
1628412515.1,286047000.8,N
1628412516.0,286047000.8,N
1628412535.8,286046998.6,N
1628412555.6,286046999.5,N
1628412575.5,286046999.1,N
1628412595.3,286046998.2,N
1628412615.1,286046998.1,N
1628412635.9,286046999.3,N
1628412655.7,286046999.1,N
1628412675.6,286046999.3,N
1628412695.4,286046998.9,N
1628412715.2,286046998.4,N
1628412735.1,286046998.4,N
1628412736.0,286046998.4,N
1628412755.8,286046998.7,N
1628412775.6,286046996.6,Y
1628412795.5,286046999.3,P
1628412815.3,286046996.5,P
1628412835.1,286046999.0,N
1628412855.9,286046997.0,N
1628412875.7,286046998.3,N
1628412895.6,286046998.3,N
1628412915.4,286046998.3,N
1628412935.2,286046998.7,N
1628412955.1,286046998.9,N
1628412956.0,286046998.9,N
1628412975.8,286046996.7,Y
1628412995.7,286046996.9,P
1628413015.5,286046997.1,P
1628413035.3,286046998.5,N
1628413055.2,286046998.2,N
1628413075.9,286047001.2,N
1628413095.7,286047000.7,N
1628413115.6,286046998.6,N
1628413135.4,286046998.8,N
1628413155.3,286046998.3,N
1628413175.1,286046998.2,N
1628413176.0,286046998.2,N
1628413195.8,286046998.2,N
